When you browse on this site, cookies collect data to enhance your experience and personalize the content and advertising you see.
Visit our Privacy Policy to learn more. By continuing to use the site, you agree to this use of cookies and data.
  • In Hungary
  • List of Countries
  • For 7 days
  • Water Temperature
  • Satellite Maps
  • Weather Map
  • News
  • Weather Widgets
  • user-avatar
    Login

    Hourly Weather Corabia

    Today, 25 March, Monday

    Time Temperature Precipitation Wind Pressure Humidity
    00:00 +12°C° 0 mm 2 mps 761 mmHg 47%
    01:00 +10°C° 0 mm 2 mps 760 mmHg 48%
    02:00 +11°C° 0 mm 1 mps 760 mmHg 49%
    03:00 +11°C° 0 mm 1 mps 760 mmHg 50%
    04:00 +10°C° 0 mm 1 mps 759 mmHg 50%
    05:00 +10°C° 0 mm 1 mps 759 mmHg 51%
    06:00 +11°C° 0 mm 1 mps 759 mmHg 50%
    07:00 +11°C° 0 mm 1 mps 758 mmHg 50%
    08:00 +12°C° 0 mm 1 mps 758 mmHg 49%
    09:00 +14°C° 0 mm 1 mps 757 mmHg 44%
    10:00 +16°C° 0 mm 2 mps 757 mmHg 39%
    11:00 +18°C° 0 mm 2 mps 756 mmHg 33%
    12:00 +19°C° 0 mm 2 mps 756 mmHg 31%
    13:00 +21°C° 0 mm 3 mps 755 mmHg 29%
    14:00 +22°C° 0 mm 3 mps 754 mmHg 26%
    15:00 +22°C° 0 mm 3 mps 754 mmHg 27%
    16:00 +22°C° 0 mm 3 mps 753 mmHg 28%
    17:00 +23°C° 0 mm 2 mps 753 mmHg 29%
    18:00 +20°C° 0 mm 2 mps 753 mmHg 32%
    19:00 +19°C° 0 mm 1 mps 753 mmHg 35%
    20:00 +16°C° 0 mm 1 mps 753 mmHg 38%
    21:00 +16°C° 0 mm 1 mps 753 mmHg 41%
    22:00 +15°C° 0 mm 2 mps 753 mmHg 43%
    23:00 +14°C° 0 mm 2 mps 753 mmHg 45%

    Tomorrow, 26 March, Tuesday

    Time Temperature Precipitation Wind Pressure Humidity
    00:00 +14°C° 0 mm 2 mps 754 mmHg 50%
    01:00 +13°C° 0 mm 2 mps 754 mmHg 54%
    02:00 +12°C° 0 mm 3 mps 754 mmHg 59%
    03:00 +11°C° 0 mm 3 mps 754 mmHg 63%
    04:00 +11°C° 0 mm 3 mps 755 mmHg 66%
    05:00 +11°C° 0 mm 4 mps 755 mmHg 70%
    06:00 +11°C° 0 mm 4 mps 755 mmHg 68%
    07:00 +10°C° 0 mm 5 mps 756 mmHg 66%
    08:00 +10°C° 0 mm 5 mps 756 mmHg 64%
    09:00 +12°C° 0.1 mm 5 mps 757 mmHg 62%
    10:00 +12°C° 0.1 mm 5 mps 757 mmHg 60%
    11:00 +12°C° 0.1 mm 5 mps 758 mmHg 59%
    12:00 +13°C° 0.1 mm 4 mps 758 mmHg 58%
    13:00 +13°C° 0.1 mm 3 mps 758 mmHg 56%
    14:00 +14°C° 0.1 mm 3 mps 758 mmHg 55%
    15:00 +13°C° 0.4 mm 4 mps 758 mmHg 63%
    16:00 +12°C° 0.4 mm 5 mps 759 mmHg 71%
    17:00 +10°C° 0.4 mm 6 mps 759 mmHg 78%
    18:00 +9°C° 0.1 mm 5 mps 760 mmHg 79%
    19:00 +9°C° 0.1 mm 5 mps 760 mmHg 80%
    20:00 +8°C° 0.1 mm 5 mps 761 mmHg 80%
    21:00 +8°C° 0.1 mm 4 mps 762 mmHg 80%
    22:00 +8°C° 0.1 mm 4 mps 762 mmHg 80%
    23:00 +9°C° 0.1 mm 3 mps 762 mmHg 80%

    Day after tomorrow, 27 March, Wednesday

    Time Temperature Precipitation Wind Pressure Humidity
    00:00 +9°C° 0.2 mm 3 mps 763 mmHg 80%
    01:00 +9°C° 0.2 mm 2 mps 763 mmHg 81%
    02:00 +10°C° 0.2 mm 1 mps 763 mmHg 81%
    03:00 +10°C° 0 mm 1 mps 763 mmHg 81%
    04:00 +9°C° 0 mm 1 mps 763 mmHg 82%
    05:00 +9°C° 0 mm 1 mps 763 mmHg 82%
    06:00 +9°C° 0.1 mm 1 mps 764 mmHg 82%
    07:00 +9°C° 0.1 mm 1 mps 764 mmHg 81%
    08:00 +9°C° 0.1 mm 2 mps 764 mmHg 81%
    09:00 +9°C° 0 mm 2 mps 764 mmHg 76%
    10:00 +10°C° 0 mm 2 mps 764 mmHg 71%
    11:00 +12°C° 0 mm 2 mps 764 mmHg 66%
    12:00 +13°C° 0 mm 2 mps 764 mmHg 63%
    13:00 +13°C° 0 mm 2 mps 764 mmHg 61%
    14:00 +14°C° 0 mm 1 mps 764 mmHg 58%
    15:00 +14°C° 0 mm 1 mps 764 mmHg 56%
    16:00 +14°C° 0 mm 1 mps 764 mmHg 55%
    17:00 +13°C° 0 mm 0 mps 764 mmHg 54%
    18:00 +13°C° 0 mm 1 mps 764 mmHg 58%
    19:00 +12°C° 0 mm 1 mps 765 mmHg 62%
    20:00 +11°C° 0 mm 1 mps 765 mmHg 67%
    21:00 +10°C° 0 mm 3 mps 766 mmHg 67%
    22:00 +8°C° 0 mm 4 mps 766 mmHg 68%
    23:00 +8°C° 0 mm 6 mps 767 mmHg 68%

    28 March, Thursday

    Time Temperature Precipitation Wind Pressure Humidity
    00:00 +7°C° 0 mm 6 mps 767 mmHg 65%
    01:00 +7°C° 0 mm 6 mps 768 mmHg 63%
    02:00 +7°C° 0 mm 6 mps 768 mmHg 60%
    03:00 +5°C° 0 mm 6 mps 768 mmHg 58%
    04:00 +5°C° 0 mm 7 mps 768 mmHg 56%
    05:00 +5°C° 0 mm 7 mps 768 mmHg 54%
    06:00 +5°C° 0 mm 7 mps 769 mmHg 55%
    07:00 +5°C° 0 mm 7 mps 769 mmHg 56%
    08:00 +5°C° 0 mm 7 mps 769 mmHg 58%
    09:00 +6°C° 0 mm 7 mps 770 mmHg 55%
    10:00 +8°C° 0 mm 7 mps 770 mmHg 53%
    11:00 +9°C° 0 mm 7 mps 770 mmHg 51%
    12:00 +10°C° 0 mm 6 mps 769 mmHg 48%
    13:00 +11°C° 0 mm 6 mps 769 mmHg 46%
    14:00 +11°C° 0 mm 6 mps 769 mmHg 43%
    15:00 +11°C° 0 mm 6 mps 768 mmHg 43%
    16:00 +11°C° 0 mm 6 mps 768 mmHg 42%
    17:00 +11°C° 0 mm 6 mps 768 mmHg 42%
    18:00 +10°C° 0 mm 5 mps 768 mmHg 43%
    19:00 +8°C° 0 mm 5 mps 769 mmHg 44%
    20:00 +7°C° 0 mm 4 mps 769 mmHg 45%
    21:00 +6°C° 0 mm 4 mps 770 mmHg 45%
    22:00 +5°C° 0 mm 4 mps 770 mmHg 44%
    23:00 +5°C° 0 mm 3 mps 771 mmHg 44%

    29 March, Friday

    Time Temperature Precipitation Wind Pressure Humidity
    00:00 +4°C° 0 mm 3 mps 771 mmHg 46%
    01:00 +4°C° 0 mm 3 mps 771 mmHg 48%
    02:00 +3°C° 0 mm 3 mps 771 mmHg 51%
    03:00 +4°C° 0 mm 2 mps 771 mmHg 54%
    04:00 +3°C° 0 mm 2 mps 771 mmHg 57%
    05:00 +3°C° 0 mm 2 mps 771 mmHg 60%
    06:00 +4°C° 0 mm 2 mps 772 mmHg 58%
    07:00 +4°C° 0 mm 2 mps 772 mmHg 57%
    08:00 +5°C° 0 mm 2 mps 772 mmHg 55%
    09:00 +7°C° 0 mm 3 mps 772 mmHg 49%
    10:00 +7°C° 0 mm 4 mps 771 mmHg 42%
    11:00 +9°C° 0 mm 5 mps 771 mmHg 36%
    12:00 +9°C° 0 mm 5 mps 771 mmHg 34%
    13:00 +10°C° 0 mm 5 mps 770 mmHg 33%
    14:00 +12°C° 0 mm 5 mps 769 mmHg 32%
    15:00 +12°C° 0 mm 5 mps 769 mmHg 33%
    16:00 +11°C° 0 mm 4 mps 768 mmHg 34%
    17:00 +11°C° 0 mm 4 mps 768 mmHg 34%
    18:00 +10°C° 0 mm 3 mps 768 mmHg 38%
    19:00 +9°C° 0 mm 3 mps 769 mmHg 42%
    20:00 +7°C° 0 mm 2 mps 769 mmHg 45%
    21:00 +8°C° 0 mm 1 mps 769 mmHg 46%
    22:00 +7°C° 0 mm 1 mps 769 mmHg 47%
    23:00 +7°C° 0 mm 1 mps 769 mmHg 48%

    30 March, Saturday

    Time Temperature Precipitation Wind Pressure Humidity
    00:00 +6°C° 0 mm 1 mps 769 mmHg 49%
    01:00 +6°C° 0 mm 1 mps 769 mmHg 51%
    02:00 +5°C° 0 mm 1 mps 769 mmHg 52%
    03:00 +5°C° 0 mm 1 mps 769 mmHg 54%
    04:00 +5°C° 0 mm 1 mps 769 mmHg 55%
    05:00 +4°C° 0 mm 1 mps 768 mmHg 57%
    06:00 +5°C° 0 mm 1 mps 768 mmHg 55%
    07:00 +6°C° 0 mm 1 mps 768 mmHg 53%
    08:00 +7°C° 0 mm 1 mps 768 mmHg 51%
    09:00 +9°C° 0 mm 1 mps 767 mmHg 47%
    10:00 +9°C° 0 mm 2 mps 767 mmHg 42%
    11:00 +12°C° 0 mm 2 mps 766 mmHg 37%
    12:00 +12°C° 0 mm 3 mps 766 mmHg 38%
    13:00 +12°C° 0 mm 3 mps 765 mmHg 38%
    14:00 +13°C° 0 mm 4 mps 764 mmHg 38%
    15:00 +13°C° 0 mm 3 mps 763 mmHg 39%
    16:00 +13°C° 0 mm 3 mps 763 mmHg 40%
    17:00 +13°C° 0 mm 3 mps 762 mmHg 41%
    18:00 +14°C° 0 mm 2 mps 763 mmHg 45%
    19:00 +13°C° 0 mm 2 mps 763 mmHg 48%
    20:00 +12°C° 0 mm 1 mps 763 mmHg 52%
    21:00 +11°C° 0.1 mm 1 mps 763 mmHg 57%
    22:00 +10°C° 0.1 mm 2 mps 763 mmHg 63%
    23:00 +9°C° 0.1 mm 3 mps 763 mmHg 69%
    Show more